This is the latest recevied weather packets stored in our database for station/object PP5CI-13. If no packets are shown the sender has not sent any weather packets the latest 10 day(s).
| Time | Temp. | Humidity | Pressure | Rain* | Wind** | Luminosity | Snow |
|---|---|---|---|---|---|---|---|
| 1788294322 | 22.22° C | 81% | 1011.2 hPa | 0 mm | - | - | - |
| 1788293722 | 22.22° C | 80% | 1010.2 hPa | 0 mm | - | - | - |
| 1788293122 | 22.22° C | 80% | 1010.2 hPa | 0 mm | - | - | - |
| 1788292522 | 22.78° C | 79% | 1010.2 hPa | 0 mm | - | - | - |
| 1788291922 | 22.78° C | 79% | 1010.2 hPa | 0 mm | - | - | - |
| 1788291322 | 22.78° C | 77% | 1010.2 hPa | 0 mm | - | - | - |
| 1788290723 | 22.78° C | 77% | 1010.2 hPa | 0 mm | - | - | - |
| 1788290122 | 23.33° C | 78% | 1010.2 hPa | 0 mm | - | - | - |
| 1788289522 | 23.89° C | 78% | 1010.2 hPa | 0 mm | - | - | - |
| 1788288922 | 24.44° C | 79% | 1010.2 hPa | 0 mm | - | - | - |
| 1788288322 | 25° C | 79% | 1010.2 hPa | 0 mm | - | - | - |
| 1788287723 | 26.11° C | 75% | 1009.2 hPa | 0 mm | - | - | - |
| 1788287122 | 27.22° C | 68% | 1009.2 hPa | 0 mm | - | - | - |
| 1788286522 | - | - | - | 0 mm | - | - | - |
| 1788285922 | 27.78° C | 64% | 1010.2 hPa | 0 mm | - | - | - |
| 1788285322 | - | - | - | 0 mm | - | - | - |
| 1788284723 | 27.78° C | 65% | 1010.2 hPa | 0 mm | - | - | - |
| 1788284122 | 27.78° C | 65% | 1009.2 hPa | 0 mm | - | - | - |
| 1788283522 | 27.78° C | 64% | 1009.2 hPa | 0 mm | - | - | - |
| 1788282922 | 28.33° C | 65% | 1010.2 hPa | 0 mm | - | - | - |
| 1788282322 | 27.78° C | 65% | 1010.2 hPa | 0 mm | - | - | - |
| 1788281722 | 29.44° C | 61% | 1010.2 hPa | 0 mm | - | - | - |
| 1788281123 | 31.67° C | 57% | 1010.2 hPa | 0 mm | - | - | - |
| 1788280522 | 33.89° C | 53% | 1009.2 hPa | 0 mm | - | - | - |
| 1788279922 | 33.89° C | 52% | 1009.2 hPa | 0 mm | - | - | - |
* Rain latest hour (hover to see other rain measurements)
** Current wind speed in m/s (hover to see current wind gust speed)